Location: Brahman Valley
(40.6513°N, 111.8855°W)
Time: 21:06:06
(UTC+00:00)

Vanguard 2 - Pass Details

Date: 20 May 2021
Orbit: 552 x 2937 km, 32.9° (Epoch: 14 June)

Event Time Altitude Azimuth Distance (km) Brightness Sun altitude
Rises 16:08:30 0° 274° (W) 4,980 11.2 43.8°
Reaches altitude 10° 16:11:40 10° 266° (W) 4,290 11.0 44.4°
Maximum altitude 16:22:44 38° 204° (SSW) 3,371 11.1 46.5°
Drops below altitude 10° 16:37:41 10° 145° (SE) 5,726 12.6 49.2°
Sets 16:42:47 0° 138° (SE) 6,781 12.9 50.1°
